User: anonymous   Login
Location: Unspecified
(0.0000°N, 0.0000°E)
Time: 17:02:56
(UTC+00:00)
Language:

Meteosat 2 - Orbit

View from above orbital plane
View from above orbital plane
View from above satellite
View from above satellite

Ground track
Ground track

The orbit data is extracted from the following two-line orbital elements,

1 12544U 81057A   17264.87618749 -.00000113  00000-0  00000+0 0  9992
2 12544  14.9255 346.6795 0033752 294.3811  59.1647  0.98724909 92384
Epoch (UTC): 21 September 2017 21:01:42
Eccentricity: 0.0033752
inclination: 14.9255°
perigee height: 36082 km
apogee height: 36369 km
right ascension of ascending node: 346.6795°
argument of perigee: 294.3811°
revolutions per day: 0.98724909
mean anomaly at epoch: 59.1647°
orbit number at epoch: 9238

The dashed part of the orbit path shows where the satellite is in the earth's shadow,  

DLR